Regional Weather Roundup
Issued by NWS

Home | Current Version | Previous Version | Graphics & Text | Print | Product List | Glossary On
Versions: 1 2 3 4 5 6 7 8 9 10 11 12 13 14 15 16 17 18 19 20 21 22 23 24 25 26 27 28 29 30 31 32 33 34 35 36 37 38 39 40 41 42 43 44 45 46 47 48 49 50
000
ASUS43 KMKX 260320
RWRWI

WISCONSIN REGIONAL WEATHER ROUNDUP
NATIONAL WEATHER SERVICE MILWAUKEE/SULLIVAN WI
900 PM CST SAT FEB 25 2017

NOTE: "FAIR" INDICATES FEW OR NO CLOUDS BELOW 12,000 FEET WITH NO
SIGNIFICANT WEATHER AND/OR OBSTRUCTIONS TO VISIBILITY.

WIZ001-002-006>008-014>016-023>028-260400-
NORTHWEST WISCONSIN

CITY           SKY/WX    TMP DP  RH WIND       PRES   REMARKS
SUPERIOR ARPT  LGT SNOW  28  25  89 SW7       29.77S WCI  20
ASHLAND        CLOUDY    26  14  60 SW10      29.78S WCI  16
HAYWARD        CLOUDY    27  15  61 SW5       29.78S WCI  22
SIREN          PTCLDY    29  19  64 SW9       29.78F WCI  21
CUMBERLAND     CLOUDY    27  19  74 SW17G23   29.80S WCI  14
RICE LAKE      CLOUDY    28  20  71 S9G16     29.83S WCI  19
CHETEK         CLOUDY    26  19  73 SW8       29.83S WCI  18
LADYSMITH      CLOUDY    24  13  64 S9        29.83S WCI  14
EAU CLAIRE     CLEAR     20  14  77 SW9       29.87S WCI   9
MENOMONIE      PTCLDY    24  16  71 S12       29.87S WCI  12
NEW RICHMOND   MOCLDY    25  17  72 SW12      29.84S WCI  14
OSCEOLA        CLOUDY    28  20  72 SW13      29.85F WCI  18
$$

WIZ003>005-009-010-017-018-260400-
NORTH CENTRAL WISCONSIN

CITY           SKY/WX    TMP DP  RH WIND       PRES   REMARKS
MANITOWISH WTR CLOUDY    17  11  75 S5        29.77S WCI  10
ARBOR VITAE    MOCLDY    17  10  75 SW5         N/A  WCI  10
WOODRUFF       MOCLDY    17  10  75 SW5         N/A  WCI  10
RHINELANDER    CLEAR     17   7  64 SW8       29.80R WCI   7
EAGLE RIVER    CLOUDY    16   8  71 SW7       29.78R WCI   7
LAND O LAKES   CLOUDY    13   9  84 CALM      29.78S
PHILLIPS       CLOUDY    20  10  65 SW6       29.79S WCI  13
TOMAHAWK       CLEAR     16   8  69 CALM      29.82S
MEDFORD        MOCLDY    17   7  65 SW9       29.83S WCI   6
MERRILL        NOT AVBL
$$

WIZ029-030-035-036-043>047-260400-
CENTRAL WISCONSIN

CITY           SKY/WX    TMP DP  RH WIND       PRES   REMARKS
WAUSAU         CLEAR     18   8  65 SW8       29.86R WCI   8
MOSINEE        CLEAR     16   9  73 SW9       29.88R WCI   4
MARSHFIELD     CLEAR     17   8  67 SW9       29.86S WCI   6
STEVENS POINT  CLEAR     17   8  66 SW6       29.90S WCI   9
WAUPACA        CLEAR     18   9  69 SW7       29.93R WCI   8
WAUTOMA        CLEAR     14   9  80 SW8       29.95  WCI   3
WISC RAPIDS    CLEAR     19  10  68 SW10      29.92R WCI   7
CAMP DOUGLAS   CLEAR     20  10  65 SW8       29.94R WCI  10
$$

WIZ011>013-019>022-031-037>040-048>050-260400-
NORTHEAST WISCONSIN

CITY           SKY/WX    TMP DP  RH WIND       PRES   REMARKS
ANTIGO         CLEAR     15   6  68 SW8       29.83S WCI   4
SHAWANO        CLEAR     19   9  63 SW3       29.91R
OCONTO         CLEAR     17   8  66 W7        29.90R WCI   7
STURGEON BAY   CLEAR     17  10  74 SW10      29.89R WCI   5
GREEN BAY      CLEAR     20   9  62 SW9       29.92R WCI   9
MANITOWOC      CLEAR     18  10  71 W12       29.93R WCI   5
APPLETON       PTCLDY    19   7  58 SW10      29.90R WCI   8
CLINTONVILLE   CLEAR     18   7  62 SW5       29.91R WCI  11
OSHKOSH        CLEAR     19   9  65 W6        29.93R WCI  11
$$

WIZ032>034-041-042-053>061-260400-
SOUTHWEST WISCONSIN

CITY           SKY/WX    TMP DP  RH WIND       PRES   REMARKS
LA CROSSE      MOCLDY    23  13  65 S15       29.96S WCI  10
SPARTA         MOCLDY    19  13  76 CALM      29.96S
VIROQUA        CLEAR     19  13  79 SW8       29.94S WCI   8
BOSCOBEL       CLEAR     21  13  71 SW6       30.01S WCI  13
PRAIRIE DU CHI CLEAR     23  14  69 SW5       30.01S WCI  17
PLATTEVILLE    CLEAR     19  16  86 W3        30.01S
$$

WIZ056-057-062-063-064-067-068-260400-
SOUTH CENTRAL WISCONSIN

CITY           SKY/WX    TMP DP  RH WIND       PRES   REMARKS
REEDSBURG      CLEAR     20  11  68 W5        29.97R WCI  13
BARABOO/DELLS  CLEAR     18  11  72 SW5       29.96S WCI  11
LONE ROCK      CLEAR     22  13  68 SW5       30.01R WCI  16
MINERAL POINT  CLEAR     21  18  86 CALM      29.99R
MADISON        MOCLDY    20  14  77 VRB5      29.99R WCI  13
MIDDLETON      CLEAR     21  16  79 SW3       30.00R
WATERTOWN      CLEAR     18  12  77 SW3       29.98R
MONROE         CLEAR     21  16  79 W10       29.99R WCI  10
JANESVILLE     CLEAR     25  16  68 W6        30.01R WCI  18
$$

WIZ051-052-058>065-066-070>072-260400-
SOUTHEAST WISCONSIN

CITY           SKY/WX    TMP DP  RH WIND       PRES   REMARKS
MILWAUKEE      PTCLDY    24  10  55 W8        29.98R WCI  15
WAUKESHA       CLEAR     21  10  63 W12       29.98R WCI   9
MILWAUKEE/TIMM CLEAR     21  10  63 W10       29.98R WCI  10
RACINE         CLEAR     22  11  62 W9        30.00R WCI  12
KENOSHA        CLOUDY    22  13  68 W8        29.99R WCI  12
FOND DU LAC    CLEAR     16   8  71 SW6       29.96R WCI   7
SHEBOYGAN      CLEAR     20  10  65 W12       29.94R WCI   8
WEST BEND      CLEAR     19  14  79 W5        29.96R WCI  13
JUNEAU         CLEAR     17  11  80 SW5       29.98R WCI   9
$$

LSZ147-162-260400-
LAKE SUPERIOR

STATION/POSITION TIME  TEMP    WIND        PRES    WAVE
                       AIR SEA DIR/SP/G            HT/PER
                 (UTC) (F)     (DEG/KT/KT) (MB)    (FT/S)
DEVILS ISLAND    0300   28     210/ 15/ 18 1008.3F
PORT WING        0230   26     190/  6/  7 1008.1S
SAXON HARBOR     0240   22     180/  4/  7 1008.5S
$$

LMZ867-665-643>646-260400-
LAKE MICHIGAN

STATION/POSITION TIME  TEMP    WIND        PRES    WAVE
                       AIR SEA DIR/SP/G            HT/PER
                 (UTC) (F)     (DEG/KT/KT) (MB)    (FT/S)
NORTHPORT PIER   0240   22        CALM     1011.2R
SISTER BAY       0150   20        CALM       N/A
KEWAUNEE LAKESHO 0254   19     270/  9/ 14 1012.4R
SHEBOYGAN LAKESH 0300   22     260/ 13/ 16 1015.0R
PORT WASHINGTON  0230   22     280/  9/ 13 1015.2R
MILWAUKEE LAKESH 0300   24     270/ 10/ 13   N/A
KENOSHA   LAKESH 0300   24     270/ 10/ 15 1015.9
$$

TC  - TEMPERATURE IN CELSIUS
VSB - VISIBILITY IN STATUTE MILES
WCI - WIND CHILL INDEX
HX  - HEAT INDEX




USA.gov is the U.S. government's official web portal to all federal, state and local government web resources and services.